GFSFLT1_prec_cthk_030.txt.gz
RH
51 53 55 58 56 62 74 85 93 89 92 91 78 72 69 70 72 73 72 71 70 71 66 62 57 54 52 47 43 39 32 27
53 58 59 62 71 78 86 90 91 91 84 79 73 69 68 68 69 69 68 66 64 61 56 53 51 47 41 37 33 30 27 24
58 60 64 74 82 83 89 84 73 70 65 61 61 62 61 63 63 62 62 63 60 57 55 50 45 40 37 34 30 26 22 19
61 64 71 79 78 72 67 65 62 60 57 55 56 57 58 60 60 60 59 57 54 51 47 43 41 37 29 23 20 18 17 16
63 70 70 65 61 58 59 59 60 59 58 60 61 60 63 63 61 60 58 54 52 48 44 38 31 27 26 24 22 21 22 24
64 67 65 63 63 64 67 67 69 67 69 69 64 63 63 61 59 59 55 50 46 38 29 26 25 27 29 28 27 27 26 27
68 64 64 68 71 80 81 77 73 73 72 68 64 63 59 57 55 50 48 44 36 26 25 25 26 28 32 34 33 33 34 33
63 68 71 78 77 75 74 76 76 75 71 63 62 60 56 52 49 46 39 32 29 29 29 31 35 40 38 35 44 44 45 47
68 70 70 65 66 71 74 75 77 74 66 62 60 53 49 47 41 36 35 33 32 33 36 41 45 44 45 49 53 61 59 59
63 60 60 64 68 72 75 77 74 71 65 59 54 53 50 44 40 37 37 37 39 45 45 48 51 58 68 63 69 70 73 70
56 59 60 63 68 72 74 72 69 64 63 59 57 52 45 42 43 44 39 40 45 49 50 46 44 46 55 64 69 73 79 76
57 60 63 66 68 73 73 71 69 72 64 57 49 44 44 46 44 40 40 40 35 28 29 35 38 46 54 60 60 67 76 77
62 65 67 70 74 73 69 77 79 65 58 51 47 48 47 44 40 37 36 30 28 26 31 41 45 49 52 56 67 81 80 81
63 66 69 72 70 71 80 71 64 60 55 53 51 46 41 36 33 31 30 28 25 26 37 45 43 55 60 70 78 82 77 70
63 67 68 65 70 75 66 64 62 59 55 51 46 41 34 32 31 31 30 27 26 32 38 39 48 57 63 65 65 59 51 49
62 63 64 70 71 68 64 63 60 55 52 48 41 35 34 34 34 31 28 29 32 38 41 48 59 57 55 49 48 47 45 43
60 64 74 73 69 69 67 62 56 52 46 40 36 36 37 36 32 31 33 34 37 44 50 54 61 49 43 47 45 45 43 38
62 68 68 66 69 69 63 57 52 47 42 37 39 40 37 33 34 36 37 36 42 50 56 61 60 45 46 46 44 43 38 35
64 65 68 68 70 65 60 54 49 41 37 41 40 37 34 36 38 37 39 43 50 59 63 60 49 45 46 43 43 40 36 36

GFSFLT1_prec_cthk_033.txt.gz
RH
48 52 54 57 60 64 70 76 87 94 85 89 79 77 73 74 74 72 67 64 63 63 61 59 54 50 44 40 36 32 29 25
52 55 56 58 62 70 80 85 94 93 84 69 67 71 66 62 59 59 58 58 59 57 54 49 46 43 41 37 33 27 20 17
54 57 59 64 72 79 93 87 71 62 62 60 58 59 60 62 59 56 56 56 54 52 48 46 44 40 33 26 22 21 20 18
59 60 59 65 71 70 67 60 55 56 60 65 68 70 67 64 62 61 61 56 53 50 46 40 32 25 22 21 21 22 22 21
58 61 66 64 67 63 58 55 60 68 74 76 73 70 68 68 69 63 60 55 51 47 38 31 26 25 24 26 26 26 26 30
60 65 66 66 63 62 67 74 73 75 76 76 69 67 68 66 62 58 55 51 46 39 32 29 28 28 30 32 32 34 36 37
57 61 63 63 64 68 74 74 74 69 71 72 72 71 67 62 58 54 48 41 37 35 35 34 33 35 37 37 37 44 48 41
57 59 62 67 69 68 64 65 69 73 74 75 72 66 63 59 53 46 44 43 41 40 39 39 41 41 42 42 38 53 55 46
55 58 61 63 61 60 62 65 70 74 75 71 65 64 60 55 50 50 48 46 44 41 40 41 41 40 37 46 44 49 51 53
57 57 57 56 56 59 62 64 67 71 70 66 69 66 59 55 53 49 46 43 38 36 33 27 26 32 34 44 41 50 52 56
52 54 54 57 60 62 65 66 69 67 69 75 69 63 58 56 51 46 42 36 33 30 26 24 27 34 44 52 46 49 55 56
49 52 57 60 64 67 68 70 75 71 75 68 62 61 57 51 48 41 33 30 30 29 26 27 32 41 47 53 47 52 57 64
49 55 61 65 69 71 76 70 73 78 67 64 62 58 53 48 39 33 34 35 31 28 28 30 37 43 46 50 53 56 60 62
55 61 65 67 72 73 69 74 75 68 63 62 58 54 47 38 38 38 37 32 30 30 32 35 39 43 46 55 58 55 55 52
58 62 65 69 69 70 73 73 65 62 62 58 55 46 41 41 42 40 33 32 31 31 36 40 43 50 55 61 52 42 44 46
58 62 65 65 66 72 69 63 63 62 61 56 46 44 44 44 42 34 34 33 33 34 38 42 47 53 58 59 42 42 43 43
58 62 63 63 68 59 63 66 64 62 58 49 46 46 46 43 36 34 33 35 35 36 39 46 53 58 60 45 43 43 41 40
57 60 64 62 60 66 69 69 67 61 52 47 47 47 43 37 34 33 33 34 37 40 45 52 55 52 46 47 43 41 40 40
57 62 64 66 65 70 72 72 63 53 48 47 46 43 38 36 35 34 33 34 37 42 48 53 54 51 50 48 43 41 40 42

GFSFLT1_prec_cthk_036.txt.gz
RH
50 53 54 58 65 68 71 78 86 90 89 89 83 80 75 72 67 66 64 60 58 57 58 56 52 50 46 41 35 30 26 28
48 50 53 60 63 67 72 80 84 94 80 72 69 65 65 65 60 61 61 59 59 58 55 52 49 48 40 33 28 28 27 29
47 53 55 60 66 74 81 83 76 70 61 59 65 66 65 64 64 67 67 67 66 63 60 58 51 43 37 33 30 27 28 30
52 57 61 65 72 72 70 68 64 58 63 70 70 70 70 69 74 73 72 68 65 60 54 47 39 36 34 32 33 32 31 30
53 55 62 67 70 67 66 67 67 66 66 70 71 75 72 70 74 75 69 65 60 52 43 37 36 35 34 37 36 33 37 38
55 62 61 63 67 69 69 64 65 65 66 68 69 71 72 74 72 69 68 63 51 44 43 41 39 40 42 41 39 41 45 43
60 59 57 58 58 61 64 64 65 64 64 66 70 71 72 70 69 69 63 59 54 53 51 44 42 43 45 48 48 46 53 57
56 53 53 55 58 59 61 60 62 65 66 67 68 67 64 68 70 62 56 57 57 55 50 46 45 44 41 40 55 55 56 58
51 53 55 56 57 60 59 61 62 63 64 65 66 62 68 67 58 56 56 56 53 47 42 37 39 39 40 42 53 57 61 50
51 54 58 58 58 59 59 62 64 62 62 70 69 65 64 58 54 54 55 49 45 41 40 39 38 39 41 44 53 56 55 51
50 56 57 55 55 58 62 64 63 65 72 71 66 68 61 56 54 54 50 43 38 37 35 34 35 38 39 44 47 51 59 48
50 56 53 54 59 64 66 65 66 68 65 67 70 63 57 53 53 50 43 39 38 38 37 36 36 39 41 40 42 54 55 53
50 52 52 56 61 64 65 65 67 72 71 70 62 57 53 53 51 45 42 42 41 40 39 39 40 40 42 44 44 52 59 62
46 49 52 57 62 66 65 69 77 70 68 62 59 57 54 50 48 47 47 44 42 40 37 36 36 37 43 46 53 60 63 49
47 51 54 57 62 63 65 77 70 65 60 59 59 55 50 51 49 48 45 42 40 38 36 35 36 40 46 50 56 61 53 46
46 51 52 57 60 62 72 67 64 60 60 61 57 54 52 51 49 46 43 37 38 36 35 36 39 42 44 49 54 46 48 43
45 48 52 56 59 63 64 64 62 62 63 59 56 55 51 50 46 42 40 38 41 40 43 43 43 45 44 44 44 45 47 43
42 46 52 59 61 62 64 65 67 66 63 57 56 51 50 48 44 40 39 37 40 39 41 44 46 50 47 46 46 45 46 43
44 50 57 60 60 66 68 69 70 66 58 58 53 54 50 47 43 40 36 35 38 41 41 45 49 50 49 48 47 47 47 45

GFSFLT1_prec_cthk_042.txt.gz
RH
41 46 53 57 55 56 61 65 66 68 72 78 80 76 72 67 65 61 60 55 50 51 53 54 54 52 49 46 44 45 43 40
47 47 50 54 55 58 62 63 64 65 73 75 66 62 63 60 60 55 51 50 53 55 56 56 55 56 52 47 45 45 42 40
44 46 50 56 51 57 61 62 67 74 75 68 61 60 58 53 49 52 55 56 57 59 60 62 60 56 47 45 44 41 43 44
45 47 50 55 57 63 60 65 71 66 64 62 58 53 51 52 55 58 60 62 62 62 62 60 57 49 47 44 43 45 46 44
46 50 53 59 61 63 64 70 63 64 59 56 56 55 56 57 60 62 62 65 63 65 61 56 53 50 45 41 43 45 45 46
50 50 53 59 62 62 65 64 62 61 55 57 56 60 61 64 69 69 73 75 70 62 58 57 55 50 47 44 48 49 46 47
54 56 56 58 59 59 60 60 65 61 58 58 59 60 63 66 68 70 74 72 69 64 61 57 51 47 40 43 42 40 37 40
48 55 55 52 54 56 62 62 61 59 58 58 58 61 66 66 67 66 72 66 64 58 54 48 43 40 43 43 40 39 40 44
47 49 50 52 57 56 57 59 59 57 56 57 57 62 64 65 69 69 73 62 51 50 46 43 42 44 42 39 37 38 40 47
46 48 48 51 52 52 52 54 54 52 54 57 58 62 62 65 66 74 74 61 52 43 43 42 46 46 43 42 43 43 46 48
42 41 42 44 47 48 50 56 54 53 54 58 62 63 65 67 71 72 66 60 44 42 46 48 49 47 49 45 42 42 41 39
37 37 40 44 47 50 52 57 58 56 57 61 63 66 69 69 69 72 69 52 44 48 51 52 52 50 47 45 42 38 35 38
37 38 41 44 48 50 54 60 61 59 60 63 66 68 75 69 73 72 59 49 51 53 54 53 52 54 48 39 36 37 33 37
40 43 43 45 48 52 56 58 59 60 63 67 69 71 76 66 77 63 53 56 59 58 55 54 61 54 46 41 38 42 44 46
42 48 52 50 51 54 58 58 60 60 67 72 70 71 78 68 68 61 61 60 61 59 59 60 56 50 44 44 50 47 47 45
42 51 54 55 53 57 56 57 57 65 71 70 73 75 70 76 67 59 63 67 62 62 62 63 57 49 49 47 48 45 43 39
44 43 46 52 55 57 57 57 59 68 70 70 74 77 78 71 61 69 74 68 64 67 64 61 52 50 45 45 47 48 45 39
43 44 46 51 57 57 58 62 63 62 65 72 78 83 69 66 75 76 70 69 66 63 57 56 49 49 46 46 49 51 48 41
39 44 45 51 59 60 62 61 62 65 73 79 81 83 75 77 76 74 71 71 66 59 60 56 55 53 48 50 54 55 53 45

GFSFLT1_prec_cthk_045.txt.gz
RH
32 34 35 42 45 48 55 58 58 62 60 66 74 76 72 65 63 55 56 53 50 47 46 46 46 47 45 44 41 41 38 36
32 36 39 43 45 51 58 64 67 60 63 70 71 71 64 59 55 55 52 47 45 45 48 49 50 50 50 47 45 40 37 35
33 37 39 38 44 53 55 67 64 60 68 66 62 56 53 52 52 50 47 45 48 50 53 53 56 58 54 49 42 36 34 34
32 36 38 40 44 50 55 62 59 60 66 64 58 55 52 50 47 45 48 52 53 55 57 59 60 55 52 46 39 36 34 36
37 38 42 42 45 51 59 59 59 61 64 57 55 51 45 44 47 49 51 56 60 61 62 60 54 50 46 43 40 38 38 40
46 45 44 48 51 52 59 58 60 63 54 56 53 49 48 47 48 52 58 58 59 64 62 57 53 46 42 44 44 39 37 37
57 55 53 49 49 52 57 58 57 57 57 55 55 51 49 50 56 60 63 68 64 64 66 65 64 52 45 45 37 40 42 40
54 52 52 50 50 52 53 58 57 57 58 56 54 53 54 59 64 68 70 67 64 69 73 73 64 48 35 38 43 44 42 42
46 45 47 47 49 53 51 54 53 58 58 56 56 55 58 63 67 70 70 72 75 75 79 69 59 39 39 44 46 47 46 44
38 41 44 45 47 46 50 56 58 55 56 56 56 59 63 69 69 69 72 73 68 69 68 61 48 40 47 51 51 50 48 47
38 40 39 41 41 47 52 54 55 56 57 59 60 61 66 68 67 73 78 80 70 60 64 53 46 53 54 54 54 49 44 43
33 35 37 39 43 46 51 54 55 56 57 61 66 70 73 76 73 71 75 89 80 54 51 50 56 58 57 54 51 47 46 46
34 35 36 37 38 40 45 52 56 59 63 65 71 77 82 77 78 80 78 79 58 56 57 62 60 61 57 59 52 49 48 49
38 41 41 41 45 57 63 60 61 62 65 71 81 85 76 78 76 77 78 69 62 60 66 67 61 61 62 62 53 57 59 52
42 45 47 50 65 79 81 71 71 70 67 72 75 74 77 74 77 74 80 75 66 67 75 62 67 68 66 63 57 58 54 52
43 47 52 64 68 72 75 75 72 67 67 71 74 73 73 75 79 89 79 72 74 78 67 73 68 71 71 64 59 62 59 54
39 45 54 55 61 65 69 62 60 66 69 74 69 71 75 78 87 84 78 80 82 75 74 70 76 67 64 62 58 56 55 50
36 43 48 52 56 61 58 59 64 65 69 70 75 76 77 93 89 85 87 85 75 80 79 76 64 62 63 58 51 52 52 51
34 38 44 49 49 53 58 63 66 69 74 76 73 81 93 92 92 91 83 83 81 81 75 69 63 62 57 54 50 54 54 58